Satellite: XO-53
Catalog number: 28894
Epoch time:      06249.75883830
Element set:    0646
Inclination:      098.1553 deg
RA of node:       146.7455 deg
Eccentricity:    0.0016764
Arg of perigee:   281.1828 deg
Mean anomaly:     078.7482 deg
Mean motion:   14.59503447 rev/day
Decay rate:        4.8e-07 rev/day^2
Epoch rev:           04587
Checksum:              360

Satellite: CO-56
Catalog number: 28941
Epoch time:      06249.65974877
Element set:     192
Inclination:      098.1729 deg
RA of node:       276.2470 deg
Eccentricity:    0.0271655
Arg of perigee:   187.4635 deg
Mean anomaly:     172.2633 deg
Mean motion:   15.27334325 rev/day
Decay rate:     1.8671e-04 rev/day^2
Epoch rev:            2997
Checksum:              362

/EX
SB KEPS @ AMSAT  $ORB06250.W
Orbital Elements  06250.WEATHER

HR AMSAT ORBITAL ELEMENTS FOR WEATHER SATELLITES
FROM WA5QGD FORT WORTH,TX September 7, 2006
Send SUBSCRIBE KEPS/UNSUBSCRIBE KEPS to majordomo at amsat.org only
BID: ORB06250.W
TO ALL RADIO AMATEURS BT

Satellite: NOAA-10
Catalog number: 16969
Epoch time:      06250.44426275
Element set:     338
Inclination:      098.7600 deg
RA of node:       262.2545 deg
Eccentricity:    0.0011631
Arg of perigee:   273.1051 deg
Mean anomaly:     086.8809 deg
Mean motion:   14.27302455 rev/day
Decay rate:       -6.3e-07 rev/day^2
Epoch rev:            3889
Checksum:              301

Satellite: NOAA-11
Catalog number: 19531
Epoch time:      06250.32526979
Element set:     273
Inclination:      098.8255 deg
RA of node:       337.8498 deg
Eccentricity:    0.0012303
Arg of perigee:   113.7659 deg
Mean anomaly:     246.4820 deg
Mean motion:   14.14815005 rev/day
Decay rate:      -2.27e-06 rev/day^2
Epoch rev:           92615
Checksum:              309

Satellite: NOAA-12
Catalog number: 21263
Epoch time:      06250.36905169
Element set:     765
Inclination:      098.7358 deg
RA of node:       243.3289 deg
Eccentricity:    0.0012255
Arg of perigee:   206.3631 deg
Mean anomaly:     153.6939 deg
Mean motion:   14.25507574 rev/day
Decay rate:       1.54e-06 rev/day^2
Epoch rev:           79595
Checksum:              325

Satellite: MET-3/5
Catalog number: 21655
Epoch time:      06249.95746164
Element set:    0192
Inclination:      082.5552 deg
RA of node:       203.0164 deg
Eccentricity:    0.0012355
Arg of perigee:   191.7481 deg
Mean anomaly:     168.3352 deg
Mean motion:   13.17007694 rev/day
Decay rate:        5.1e-07 rev/day^2
Epoch rev:           72412
Checksum:              291

Satellite: MET-2/21
Catalog number: 22782
Epoch time:      06249.60411990
Element set:    0609
Inclination:      082.5446 deg
RA of node:       266.8616 deg
Eccentricity:    0.0021159
Arg of perigee:   314.8469 deg
Mean anomaly:     045.0970 deg
Mean motion:   13.83609956 rev/day
Decay rate:        4.8e-07 rev/day^2
Epoch rev:           65730
Checksum:              328

Satellite: OKEAN-4
Catalog number: 23317
Epoch time:      06249.75925715
Element set:      43
Inclination:      082.5397 deg
RA of node:       200.9138 deg
Eccentricity:    0.0023828
Arg of perigee:   104.3588 deg
Mean anomaly:     256.0282 deg
Mean motion:   14.82393034 rev/day
Decay rate:       1.08e-06 rev/day^2
Epoch rev:           64206
Checksum:              297

Satellite: NOAA-14
Catalog number: 23455
Epoch time:      06250.32979584
Element set:     265
Inclination:      099.0304 deg
RA of node:       309.4499 deg
Eccentricity:    0.0009499
Arg of perigee:   174.8090 deg
Mean anomaly:     185.3172 deg
Mean motion:   14.13680014 rev/day
Decay rate:      -2.13e-06 rev/day^2
Epoch rev:           60267
Checksum:              313

Satellite: SICH-1
Catalog number: 23657
Epoch time:      06250.68684000
Element set:     847
Inclination:      082.5325 deg
RA of node:       340.9594 deg
Eccentricity:    0.0025842
Arg of perigee:   091.9705 deg
Mean anomaly:     268.4499 deg
Mean motion:   14.81386569 rev/day
Decay rate:        4.9e-07 rev/day^2
Epoch rev:           59420
Checksum:              336

Satellite: NOAA-15
Catalog number: 25338
Epoch time:      06250.40988310
Element set:     653
Inclination:      098.5195 deg
RA of node:       250.2657 deg
Eccentricity:    0.0011244
Arg of perigee:   130.6001 deg
Mean anomaly:     229.6186 deg
Mean motion:   14.24601536 rev/day
Decay rate:        8.5e-07 rev/day^2
Epoch rev:           43242
Checksum:              279

Satellite: RESURS
Catalog number: 25394
Epoch time:      06249.78530806
Element set:    0475
Inclination:      098.4874 deg
RA of node:       309.8949 deg
Eccentricity:    0.0001037
Arg of perigee:   333.3150 deg
Mean anomaly:     026.7976 deg
Mean motion:   14.24110690 rev/day
Decay rate:       -1.2e-07 rev/day^2
Epoch rev:           42401
Checksum:              298

Satellite: FENGYUN1
Catalog number: 25730
Epoch time:      06250.61517903
Element set:     818
Inclination:      098.6314 deg
RA of node:       240.0663 deg
Eccentricity:    0.0013615
Arg of perigee:   267.9519 deg
Mean anomaly:     092.0110 deg
Mean motion:   14.11813968 rev/day
Decay rate:      -1.06e-06 rev/day^2
Epoch rev:           37764
Checksum:              286

Satellite: OKEAN-0
Catalog number: 25860
Epoch time:      06250.72466743
Element set:     845
Inclination:      097.7336 deg
RA of node:       261.2119 deg
Eccentricity:    0.0000865
Arg of perigee:   111.0758 deg
Mean anomaly:     249.0539 deg
Mean motion:   14.73386707 rev/day
Decay rate:        8.0e-07 rev/day^2
Epoch rev:           38390
Checksum:              309

Satellite: NOAA-16
Catalog number: 26536
Epoch time:      06250.39397280
Element set:      33
Inclination:      099.0749 deg
RA of node:       218.0121 deg
Eccentricity:    0.0009823
Arg of perigee:   248.9517 deg
Mean anomaly:     111.0619 deg
Mean motion:   14.12368280 rev/day
Decay rate:       3.37e-06 rev/day^2
Epoch rev:           30718
Checksum:              296

Satellite: NOAA-17
Catalog number: 27453
Epoch time:      06250.32217389
Element set:      52
Inclination:      098.6155 deg
RA of node:       320.9166 deg
Eccentricity:    0.0011635
Arg of perigee:   192.8096 deg
Mean anomaly:     167.2810 deg
Mean motion:   14.23806633 rev/day
Decay rate:        2.3e-07 rev/day^2
Epoch rev:           21846
Checksum:              294

Satellite: NOAA-18
Catalog number: 28654
Epoch time:      06250.32372121
Element set:     624
Inclination:      098.7915 deg
RA of node:       191.8584 deg
Eccentricity:    0.0014624
Arg of perigee:   352.3342 deg
Mean anomaly:     007.7615 deg
Mean motion:   14.10990028 rev/day
Decay rate:       3.80e-06 rev/day^2
Epoch rev:            6696
Checksum:              302

/EX
SB KEPS @ AMSAT  $ORB06250.M
Orbital Elements  06250.MISC

HR AMSAT ORBITAL ELEMENTS FOR MANNED AND MISCELLANEOUS SATELLITES
FROM WA5QGD FORT WORTH,TX September 7, 2006
Send SUBSCRIBE KEPS/UNSUBSCRIBE KEPS to majordomo at amsat.org only
BID: ORB06250.M
TO ALL RADIO AMATEURS BT

Satellite: HUBBLE
Catalog number: 20580
Epoch time:      06249.39886175
Element set:    0712
Inclination:      028.4692 deg
RA of node:       240.4648 deg
Eccentricity:    0.0003474
Arg of perigee:   325.8521 deg
Mean anomaly:     034.1846 deg
Mean motion:   15.00087268 rev/day
Decay rate:       4.54e-06 rev/day^2
Epoch rev:           69730
Checksum:              306

Satellite: UARS
Catalog number: 21701
Epoch time:      06249.95350134
Element set:    0866
Inclination:      056.9759 deg
RA of node:       099.8207 deg
Eccentricity:    0.0102037
Arg of perigee:   010.0888 deg
Mean anomaly:     350.2177 deg
Mean motion:   15.44505766 rev/day
Decay rate:      6.505e-05 rev/day^2
Epoch rev:           82193
Checksum:              311

Satellite: PO-34
Catalog number: 25520
Epoch time:      06249.93885905
Element set:    0561
Inclination:      028.4601 deg
RA of node:       204.2085 deg
Eccentricity:    0.0005227
Arg of perigee:   053.0115 deg
Mean anomaly:     307.0957 deg
Mean motion:   15.16781491 rev/day
Decay rate:       7.18e-06 rev/day^2
Epoch rev:           43447
Checksum:              296

Satellite: ISS
Catalog number: 25544
Epoch time:      06250.93043191
Element set:     626
Inclination:      051.6324 deg
RA of node:       121.1990 deg
Eccentricity:    0.0011163
Arg of perigee:   313.9612 deg
Mean anomaly:     167.8171 deg
Mean motion:   15.75700097 rev/day
Decay rate:     1.4962e-04 rev/day^2
Epoch rev:           44621
Checksum:              276

Satellite: OO-38
Catalog number: 26063
Epoch time:      06250.73268566
Element set:     711
Inclination:      100.1903 deg
RA of node:       196.6423 deg
Eccentricity:    0.0036563
Arg of perigee:   234.7487 deg
Mean anomaly:     125.0268 deg
Mean motion:   14.35776136 rev/day
Decay rate:        6.0e-08 rev/day^2
Epoch rev:           34651
Checksum:              300

Satellite: NO-45
Catalog number: 26932
Epoch time:      06249.94280226
Element set:    0415
Inclination:      067.0551 deg
RA of node:       156.8131 deg
Eccentricity:    0.0007231
Arg of perigee:   237.9445 deg
Mean anomaly:     122.0954 deg
Mean motion:   14.29533965 rev/day
Decay rate:       -2.1e-07 rev/day^2
Epoch rev:           25765
Checksum:              301

Satellite: UWE-1
Catalog number: 28892
Epoch time:      06250.60950331
Element set:     545
Inclination:      098.1530 deg
RA of node:       147.4525 deg
Eccentricity:    0.0016517
Arg of perigee:   276.4247 deg
Mean anomaly:     083.5069 deg
Mean motion:   14.59391412 rev/day
Decay rate:       1.49e-06 rev/day^2
Epoch rev:            4599
Checksum:              311

